WetterOnline ( https://www.wetteronline.de )

Wetter aktuell Eschweiler

Aktuelles Wetter: Aachen-Orsbach (231m)

6-stündlich | Neueste Meldungen
Ortszeit Temperatur Wetter
Mo, 06.02. 7:00 1.1° C Nebel
Mo, 06.02. 1:00 1.8° C wolkig
So, 05.02. 19:00 5.3° C bewölkt
So, 05.02. 13:00 5.5° C bedeckt
So, 05.02. 7:00 5.8° C bedeckt
So, 05.02. 1:00 6.5° C bewölkt
Sa, 04.02. 19:00 6.0° C bedeckt
Sa, 04.02. 13:00 7.0° C bedeckt
Ortszeit Temperatur Wetter
Mo, 06.02. 9:30 1.1° C Nebel
Mo, 06.02. 9:20 1.1° C Nebel
Mo, 06.02. 9:10 1.1° C Dunst
Mo, 06.02. 9:00 0.9° C Nebel
Mo, 06.02. 8:50 0.9° C Dunst
Mo, 06.02. 8:40 0.8° C Dunst
Mo, 06.02. 8:30 1.0° C Nebel
Mo, 06.02. 8:00 1.0° C Nebel
Mo, 06.02. 7:30 1.1° C Nebel
Mo, 06.02. 7:00 1.1° C Nebel
Mo, 06.02. 6:30 1.1° C Nebel
Ortszeit Relative Feuchte Sichtweite
Mo, 06.02. 7:00 100% 0.6 km
Mo, 06.02. 1:00 92% 15 km
So, 05.02. 19:00 76% 30 km
So, 05.02. 13:00 83% 30 km
So, 05.02. 7:00 99% 2.7 km
So, 05.02. 1:00 99% 3.6 km
Sa, 04.02. 19:00 94% 22 km
Sa, 04.02. 13:00 87% 17 km
Ortszeit Relative Feuchte Sichtweite
Mo, 06.02. 9:30 99% 0.2 km
Mo, 06.02. 9:20 99% -
Mo, 06.02. 9:10 99% -
Mo, 06.02. 9:00 100% 3.0 km
Mo, 06.02. 8:50 100% -
Mo, 06.02. 8:40 99% -
Mo, 06.02. 8:30 99% 3.2 km
Mo, 06.02. 8:00 100% 0.4 km
Mo, 06.02. 7:30 99% 0.4 km
Mo, 06.02. 7:00 100% 0.6 km
Mo, 06.02. 6:30 99% 0.6 km
Ortszeit Niederschlagsmenge Niederschlagsart
Mo, 06.02. 7:00 0.0 l/m2 in 12 Std. -
Mo, 06.02. 1:00 0.0 l/m2 in 6 Std. -
So, 05.02. 19:00 2 l/m2 in 12 Std. Regen
So, 05.02. 13:00 1 l/m2 in 6 Std. Regen
So, 05.02. 7:00 2 l/m2 in 12 Std. Regen
So, 05.02. 1:00 2 l/m2 in 6 Std. Regen
Sa, 04.02. 19:00 0.1 l/m2 in 12 Std. Regen
Sa, 04.02. 13:00 0.0 l/m2 in 6 Std. -
Ortszeit Niederschlagsmenge Niederschlagsart
Mo, 06.02. 9:30 0.0 l/m2 in 30 Min -
Mo, 06.02. 9:20 keine Meldung -
Mo, 06.02. 9:10 keine Meldung -
Mo, 06.02. 9:00 0.0 l/m2 in 1 Std. -
Mo, 06.02. 8:50 keine Meldung -
Mo, 06.02. 8:40 keine Meldung -
Mo, 06.02. 8:30 0.0 l/m2 in 30 Min -
Mo, 06.02. 8:00 <0.05 l/m2 in 1 Std. -
Mo, 06.02. 7:30 0.0 l/m2 in 30 Min -
Mo, 06.02. 7:00 0.0 l/m2 in 1 Std. -
Mo, 06.02. 6:30 0.0 l/m2 in 30 Min -
Ortszeit Stärke Spitze Richtung
km/h Bft. km/h Grad Sektor
Mo, 06.02. 7:00 6 1 22 80° O
Mo, 06.02. 1:00 11 2 31 10° N
So, 05.02. 19:00 20 4 46 350° N
So, 05.02. 13:00 28 4 59 330° NW
So, 05.02. 7:00 19 3 35 270° W
So, 05.02. 1:00 13 3 26 290° W
Sa, 04.02. 19:00 4 1 18 250° W
Sa, 04.02. 13:00 7 2 13 270° W
Ortszeit Stärke Spitze Richtung
km/h Bft. km/h Grad Sektor
Mo, 06.02. 9:30 7 2 7 340° N
Mo, 06.02. 9:20 7 2 - 340° N
Mo, 06.02. 9:10 4 1 - 350° N
Mo, 06.02. 9:00 6 1 11 10° N
Mo, 06.02. 8:50 6 1 - 10° N
Mo, 06.02. 8:40 7 2 - 20° N
Mo, 06.02. 8:30 4 1 7 30° NO
Mo, 06.02. 8:00 4 1 7 360° N
Mo, 06.02. 7:30 4 1 7 360° N
Mo, 06.02. 7:00 6 1 7 80° O
Mo, 06.02. 6:30 4 1 7 50° NO
Ortszeit Untergrenze Bedeckung Gattung
total tief tief mittel hoch
Mo, 06.02. 7:00 <30 m 8/8 0/8 - - -
Mo, 06.02. 1:00 390 m 5/8 5/8 - - -
So, 05.02. 19:00 930 m 7/8 7/8 - - -
So, 05.02. 13:00 480 m 8/8 8/8 - - -
So, 05.02. 7:00 120 m 8/8 8/8 - - -
So, 05.02. 1:00 60 m 7/8 7/8 - - -
Sa, 04.02. 19:00 1200 m 8/8 8/8 - - -
Sa, 04.02. 13:00 210 m 8/8 8/8 - - -
Ortszeit Bedeckungsgrad in Achtel und Wolkenuntergrenze
Mo, 06.02. 9:30 8(60m)
Mo, 06.02. 9:20 8(60m)
Mo, 06.02. 9:10 8
Mo, 06.02. 9:00 8(30m)
Mo, 06.02. 8:50 8(30m)
Mo, 06.02. 8:40 8
Mo, 06.02. 8:30 8(60m)
Mo, 06.02. 8:00 8(<30m)
Mo, 06.02. 7:30 8(<30m)
Mo, 06.02. 7:00 8(<30m)
Mo, 06.02. 6:30 8(30m)
Ortszeit Luftdruck NN (hPa) Tendenz (hPa in 3 Std.)
Mo, 06.02. 7:00 1043 + 0,1
Mo, 06.02. 1:00 1043 + 0,9
So, 05.02. 19:00 1041 + 1,9
So, 05.02. 13:00 1038 + 0,1
So, 05.02. 7:00 1037 - 0,2
So, 05.02. 1:00 1038 + 0,4
Sa, 04.02. 19:00 1038 + 0,8
Sa, 04.02. 13:00 1037 + 0,6
Ortszeit Luftdruck NN (hPa) Tendenz (hPa in 3 Std.)
Mo, 06.02. 9:30 1042 - 0,4
Mo, 06.02. 9:20 1042 keine Meldung
Mo, 06.02. 9:10 1042 keine Meldung
Mo, 06.02. 9:00 1042 - 0,2
Mo, 06.02. 8:50 1042 keine Meldung
Mo, 06.02. 8:40 1042 keine Meldung
Mo, 06.02. 8:30 1042 - 0,1
Mo, 06.02. 8:00 1043 + 0,1
Mo, 06.02. 7:30 1043 - 0,1
Mo, 06.02. 7:00 1043 + 0,1
Mo, 06.02. 6:30 1043 + 0,1
Ortszeit Schneehöhe (cm)
Mo, 06.02. 7:00 0
Mo, 06.02. 1:00 0
So, 05.02. 19:00 0
So, 05.02. 13:00 0
So, 05.02. 7:00 0
So, 05.02. 1:00 0
Sa, 04.02. 19:00 0
Sa, 04.02. 13:00 0
Ortszeit Schneehöhe (cm)
Mo, 06.02. 9:30 0
Mo, 06.02. 9:20 0
Mo, 06.02. 9:10 0
Mo, 06.02. 9:00 0
Mo, 06.02. 8:50 0
Mo, 06.02. 8:40 0
Mo, 06.02. 8:30 0
Mo, 06.02. 8:00 0
Mo, 06.02. 7:30 0
Mo, 06.02. 7:00 0
Mo, 06.02. 6:30 0
Link zu dieser Seite / Seite empfehlen

Das Wetter in ...